Time,TemperatureF,DewpointF,PressureIn,WindDirection,WindDirectionDegrees,WindSpeedMPH,WindSpeedGustMPH,Humidity,HourlyPrecipIn,Conditions,Clouds,dailyrainin,SolarRadiationWatts/m^2,SoftwareType,DateUTC
2013-03-29 15:33:00,68.0,23.0,-100.00,SE,124,5.0,11.0,18,-99.99,,,-99.99,970.000000,,2013-03-29 19:33:00,
2013-03-29 15:43:00,68.0,23.0,-100.00,SE,124,5.0,11.0,18,-99.99,,,-99.99,970.000000,,2013-03-29 19:43:00,
2013-03-29 15:53:00,68.0,23.0,-100.00,SE,124,5.0,11.0,18,-99.99,,,-99.99,970.000000,,2013-03-29 19:53:00,
2013-03-29 16:03:00,68.0,23.0,-100.00,SE,124,5.0,11.0,18,-99.99,,,-99.99,970.000000,,2013-03-29 20:03:00,
2013-03-29 16:33:00,67.0,22.0,-100.00,NW,304,4.0,11.0,18,0.00,,,-99.99,849.000000,,2013-03-29 20:33:00,
2013-03-29 16:42:00,67.0,22.0,-100.00,NW,304,4.0,11.0,18,0.00,,,-99.99,849.000000,,2013-03-29 20:42:00,
2013-03-29 16:52:00,67.0,22.0,-100.00,NW,304,4.0,11.0,18,0.00,,,-99.99,849.000000,,2013-03-29 20:52:00,
2013-03-29 17:02:00,67.0,22.0,-100.00,NW,304,4.0,11.0,18,0.00,,,-99.99,849.000000,,2013-03-29 21:02:00,
2013-03-29 17:33:00,65.0,23.0,-100.00,ENE,67,3.0,11.0,20,0.00,,,-99.99,435.000000,,2013-03-29 21:33:00,
2013-03-29 17:43:00,65.0,23.0,-100.00,ENE,67,3.0,11.0,20,0.00,,,-99.99,435.000000,,2013-03-29 21:43:00,
2013-03-29 17:53:00,65.0,23.0,-100.00,ENE,67,3.0,11.0,20,0.00,,,-99.99,435.000000,,2013-03-29 21:53:00,
2013-03-29 18:03:00,65.0,23.0,-100.00,ENE,67,3.0,11.0,20,0.00,,,-99.99,435.000000,,2013-03-29 22:03:00,
2013-03-29 18:34:00,63.0,29.0,-100.00,ESE,107,3.0,8.0,28,0.00,,,-99.99,108.000000,,2013-03-29 22:34:00,
2013-03-29 18:43:00,63.0,29.0,-100.00,ESE,107,3.0,8.0,28,0.00,,,-99.99,108.000000,,2013-03-29 22:43:00,
2013-03-29 18:54:00,63.0,29.0,-100.00,ESE,107,3.0,8.0,28,0.00,,,-99.99,108.000000,,2013-03-29 22:54:00,
2013-03-29 19:03:00,63.0,29.0,-100.00,ESE,107,3.0,8.0,28,0.00,,,-99.99,108.000000,,2013-03-29 23:03:00,
2013-03-29 19:32:00,60.0,28.0,-100.00,East,89,2.0,8.0,29,0.00,,,-99.99,76.000000,,2013-03-29 23:32:00,
2013-03-29 19:43:00,60.0,28.0,-100.00,East,89,2.0,8.0,29,0.00,,,-99.99,76.000000,,2013-03-29 23:43:00,
2013-03-29 19:53:00,60.0,28.0,-100.00,East,89,2.0,8.0,29,0.00,,,-99.99,76.000000,,2013-03-29 23:53:00,
2013-03-29 20:03:00,60.0,28.0,-100.00,East,89,2.0,8.0,29,0.00,,,-99.99,76.000000,,2013-03-30 00:03:00,
2013-03-29 20:33:00,55.0,32.0,-100.00,NE,40,0.0,2.0,42,0.00,,,-99.99,8.000000,,2013-03-30 00:33:00,
2013-03-29 20:43:00,55.0,32.0,-100.00,NE,40,0.0,2.0,42,0.00,,,-99.99,8.000000,,2013-03-30 00:43:00,
2013-03-29 20:53:00,55.0,32.0,-100.00,NE,40,0.0,2.0,42,0.00,,,-99.99,8.000000,,2013-03-30 00:53:00,
2013-03-29 21:03:00,55.0,32.0,-100.00,NE,40,0.0,2.0,42,0.00,,,-99.99,8.000000,,2013-03-30 01:03:00,
2013-03-29 21:33:00,53.0,32.0,-100.00,South,188,2.0,4.0,45,0.00,,,-99.99,0.000000,,2013-03-30 01:33:00,
2013-03-29 21:43:00,53.0,32.0,-100.00,South,188,2.0,4.0,45,0.00,,,-99.99,0.000000,,2013-03-30 01:43:00,
2013-03-29 21:53:00,53.0,32.0,-100.00,South,188,2.0,4.0,45,0.00,,,-99.99,0.000000,,2013-03-30 01:53:00,
2013-03-29 22:03:00,53.0,32.0,-100.00,South,188,2.0,4.0,45,0.00,,,-99.99,0.000000,,2013-03-30 02:03:00,
2013-03-29 22:33:00,52.0,34.0,-100.00,West,280,3.0,5.0,51,0.00,,,-99.99,0.000000,,2013-03-30 02:33:00,
2013-03-29 22:43:00,52.0,34.0,-100.00,West,280,3.0,5.0,51,0.00,,,-99.99,0.000000,,2013-03-30 02:43:00,
2013-03-29 22:53:00,52.0,34.0,-100.00,West,280,3.0,5.0,51,0.00,,,-99.99,0.000000,,2013-03-30 02:53:00,
2013-03-29 23:03:00,52.0,34.0,-100.00,West,280,3.0,5.0,51,0.00,,,-99.99,0.000000,,2013-03-30 03:03:00,
2013-03-29 23:33:00,51.0,38.0,-100.00,NW,309,3.0,4.0,61,0.00,,,-99.99,0.000000,,2013-03-30 03:33:00,
2013-03-29 23:43:00,51.0,38.0,-100.00,NW,309,3.0,4.0,61,0.00,,,-99.99,0.000000,,2013-03-30 03:43:00,
2013-03-29 23:53:00,51.0,38.0,-100.00,NW,309,3.0,4.0,61,0.00,,,-99.99,0.000000,,2013-03-30 03:53:00,